Location: Cerezo de Arriba
(41.2389°N, 3.5585°W)
Time: 03:55:23
(UTC+00:00)

Cosmos 1867 - Pass Details

Date: 19 May 2025
Orbit: 775 x 798 km, 65.0° (Epoch: 23 June)

Event Time Altitude Azimuth Distance (km) Brightness Sun altitude
Rises 21:31:26 0° 330° (NNW) 3,310 8.4 -18.5°
Reaches altitude 10° 21:33:55 10° 334° (NNW) 2,375 7.2 -18.8°
Maximum altitude 21:39:18 59° 54° (NE) 920 3.8 -19.4°
Enters shadow 21:41:25 35° 117° (ESE) 1,256 4.1 -19.7°
